Radioactive Concentration measured by Seawater Radiation Monitor near Fukushima Daiichi Nuclear Power Station
Date,Time,Cs137(Bq/L),Cs134(Bq/L),Total β(Bq/L)
2018/05/18,00:00,0.24,ND,ND
2018/05/18,00:10,0.24,ND,ND
2018/05/18,00:20,0.24,ND,ND
2018/05/18,00:30,0.21,ND,ND
2018/05/18,00:40,0.23,ND,ND
2018/05/18,00:50,0.21,ND,ND
2018/05/18,01:00,0.21,ND,ND
2018/05/18,01:10,0.21,ND,ND
2018/05/18,01:20,0.19,ND,ND
2018/05/18,01:30,0.19,ND,ND
2018/05/18,01:40,0.17,ND,ND
2018/05/18,01:50,0.16,ND,ND
2018/05/18,02:00,0.14,ND,ND
2018/05/18,02:10,0.12,ND,ND
2018/05/18,02:20,0.13,ND,ND
2018/05/18,02:30,0.12,ND,ND
2018/05/18,02:40,0.10,ND,ND
2018/05/18,02:50,0.089,ND,11
2018/05/18,03:00,0.095,ND,ND
2018/05/18,03:10,0.091,ND,ND
2018/05/18,03:20,0.067,ND,ND
2018/05/18,03:30,0.078,ND,ND
2018/05/18,03:40,0.085,ND,ND
2018/05/18,03:50,0.087,ND,ND
2018/05/18,04:00,0.079,ND,ND
2018/05/18,04:10,0.080,ND,ND
2018/05/18,04:20,0.091,ND,ND
2018/05/18,04:30,0.089,ND,ND
2018/05/18,04:40,0.098,ND,ND
2018/05/18,04:50,0.095,ND,ND
2018/05/18,05:00,0.086,ND,ND
2018/05/18,05:10,0.082,ND,ND
2018/05/18,05:20,0.078,ND,ND
2018/05/18,05:30,0.072,ND,ND
2018/05/18,05:40,0.070,ND,ND
2018/05/18,05:50,0.074,ND,ND
2018/05/18,06:00,0.067,ND,ND
2018/05/18,06:10,0.079,ND,ND
2018/05/18,06:20,0.084,ND,ND
2018/05/18,06:30,0.082,ND,ND
2018/05/18,06:40,0.054,ND,ND
2018/05/18,06:50,0.074,ND,9.0
2018/05/18,07:00,0.084,ND,10
2018/05/18,07:10,0.079,ND,9.3
2018/05/18,07:20,0.064,ND,ND
2018/05/18,07:30,0.074,ND,ND
2018/05/18,07:40,0.091,ND,ND
2018/05/18,07:50,0.076,ND,ND
2018/05/18,08:00,0.085,ND,ND
2018/05/18,08:10,0.090,ND,ND
2018/05/18,08:20,0.085,ND,ND
2018/05/18,08:30,0.082,ND,ND
2018/05/18,08:40,0.076,ND,ND
2018/05/18,08:50,0.068,ND,ND
2018/05/18,09:00,0.065,ND,ND
2018/05/18,09:10,0.065,ND,ND
2018/05/18,09:20,0.054,ND,ND
2018/05/18,09:30,0.065,ND,ND
2018/05/18,09:40,0.056,ND,ND
2018/05/18,09:50,0.048,ND,ND
2018/05/18,10:00,0.059,ND,ND
2018/05/18,10:10,0.069,ND,ND
2018/05/18,10:20,0.065,ND,ND
2018/05/18,10:30,0.051,ND,ND
2018/05/18,10:40,0.059,ND,ND
2018/05/18,10:50,0.078,ND,ND
2018/05/18,11:00,0.085,ND,ND
2018/05/18,11:10,0.099,ND,ND
2018/05/18,11:20,0.11,ND,ND
2018/05/18,11:30,0.064,ND,ND
2018/05/18,11:40,0.068,ND,ND
2018/05/18,11:50,0.10,ND,ND
2018/05/18,12:00,0.10,ND,ND
2018/05/18,12:10,0.089,ND,ND
2018/05/18,12:20,0.10,ND,ND
2018/05/18,12:30,0.12,ND,ND
2018/05/18,12:40,0.12,ND,ND
2018/05/18,12:50,0.12,ND,ND
2018/05/18,13:00,0.10,ND,ND
2018/05/18,13:10,0.084,ND,ND
2018/05/18,13:20,0.080,ND,ND
2018/05/18,13:30,0.096,ND,ND
2018/05/18,13:40,0.079,ND,ND
2018/05/18,13:50,0.085,ND,ND
2018/05/18,14:00,0.091,ND,ND
2018/05/18,14:10,0.11,ND,ND
2018/05/18,14:20,0.12,ND,ND
2018/05/18,14:30,0.11,ND,ND
2018/05/18,14:40,0.10,ND,ND
2018/05/18,14:50,0.097,ND,ND
2018/05/18,15:00,0.092,ND,ND
2018/05/18,15:10,0.089,ND,ND
2018/05/18,15:20,0.075,ND,ND
2018/05/18,15:30,0.079,ND,ND
2018/05/18,15:40,0.085,ND,ND
2018/05/18,15:50,0.091,ND,ND
2018/05/18,16:00,0.089,ND,ND
2018/05/18,16:10,0.069,ND,ND
2018/05/18,16:20,0.069,ND,ND
2018/05/18,16:30,0.074,ND,ND
2018/05/18,16:40,0.076,ND,ND
2018/05/18,16:50,0.055,ND,ND
2018/05/18,17:00,0.069,ND,ND
2018/05/18,17:10,0.070,ND,ND
2018/05/18,17:20,0.070,ND,ND
2018/05/18,17:30,0.070,ND,ND
2018/05/18,17:40,0.082,ND,ND
2018/05/18,17:50,0.095,ND,ND
2018/05/18,18:00,0.10,ND,ND
2018/05/18,18:10,0.12,ND,ND
2018/05/18,18:20,0.10,ND,ND
2018/05/18,18:30,0.11,ND,ND
2018/05/18,18:40,0.11,ND,ND
2018/05/18,18:50,0.11,ND,ND
2018/05/18,19:00,0.088,ND,ND
2018/05/18,19:10,0.085,ND,ND
2018/05/18,19:20,0.10,ND,ND
2018/05/18,19:30,0.11,ND,ND
2018/05/18,19:40,0.097,ND,ND
2018/05/18,19:50,0.088,ND,ND
2018/05/18,20:00,0.12,ND,ND
2018/05/18,20:10,0.12,ND,ND
2018/05/18,20:20,0.12,ND,ND
2018/05/18,20:30,0.14,ND,12
2018/05/18,20:40,0.15,ND,14
2018/05/18,20:50,0.15,ND,13
2018/05/18,21:00,0.14,ND,10
2018/05/18,21:10,0.14,ND,ND
2018/05/18,21:20,0.12,ND,9.3
2018/05/18,21:30,0.11,ND,ND
2018/05/18,21:40,0.094,ND,ND
2018/05/18,21:50,0.094,ND,ND
2018/05/18,22:00,0.098,ND,ND
2018/05/18,22:10,0.074,ND,ND
2018/05/18,22:20,0.10,ND,ND
2018/05/18,22:30,0.10,ND,ND
2018/05/18,22:40,0.11,ND,ND
2018/05/18,22:50,0.11,ND,ND
2018/05/18,23:00,0.10,ND,ND
2018/05/18,23:10,0.10,ND,ND
2018/05/18,23:20,0.13,ND,ND
2018/05/18,23:30,0.11,ND,ND
2018/05/18,23:40,0.11,ND,ND
2018/05/18,23:50,0.12,ND,ND
